ARKTIKA-M 1

Last updated on Sun Oct 05 2025 00:02:21 GMT+0000 (Coordinated Universal Time)

1 47719U 21016A 25273.30456647 -.00000067 00000+0 00000+0 0 9994 2 47719 63.1648 93.9278 7163271 268.8764 16.0765 2.00626972 33571
UTC large
Height (km)
Speed (km/s)
/
Latitude / Longitude
Inclination (degrees)
Orbital Period (minutes)
Azimuth
Elevation
Range (km)
Doppler Factor

Next 0 passes for location: London (51.5072 / 0.1276)

Sorry there are no passes over London.